sat.trackr.live / text

‹ back to catalog

KUIPER-00289

NORAD 68591 · 2026-072U

PAYLOAD ACTIVE UNKNOWN

§ Identity

Operator
Country
US
Launch date
2026-04-04
Launch site
AFETR
Launch vehicle
Mass (kg)
RCS (m²)

External: N2YO · Heavens-Above · Gunter

§ Orbital elements

Epoch: 2026-05-25T02:33:57.418848Z

Period
93.72 min
Inclination
51.8661°
Eccentricity
0.0010810
Mean motion
15.36465972 rev/d
Perigee alt
449.2 km
Apogee alt
464.0 km
Semi-major
6,834.7 km
B*
2.4434e-4
RAAN
288.9410°
Arg perigee
311.0388°
Mean anomaly
48.9663°
Rev number
782

§ Raw data

KUIPER-002891 68591U 26072U   26145.10691457  .00008462  00000+0  24434-3 0  99962 68591  51.8661 288.9410 0010810 311.0388  48.9663 15.36465972  7825

JSON: /api/v1/satellites/68591 · /tle

For live sub-satellite position, see the globe view (requires WebGL).

§ Visibility from observer

Set your observer location to see the next 7 days of passes ≥ 10°. The values pass through the URL so the page stays shareable.

No JS? Fill the form by hand. The geolocation button needs JavaScript.